| time (UTC) | temp F | wind direction | speed MPH | gust MPH | rain 1hr in | rain 24hr in | rain mn in | humidity % | barometer mb |
| 20260901003504 | 76 | 322 | 2.0 | 4.0 | 0.00 | 0.00 | 0.00 | 88 | 1013.3 |
| 20260901003004 | 76 | 315 | 2.0 | 4.0 | 0.00 | 0.00 | 0.00 | 88 | 1013.3 |
| 20260901002504 | 76 | 324 | 1.0 | 3.0 | 0.00 | 0.00 | 0.00 | 88 | 1013.3 |
| 20260901002216 | 76 | 12 | 1.0 | 4.0 | 0.00 | 0.00 | 0.00 | 88 | 1013.3 |
| 20260901001504 | 76 | 31 | 2.0 | 4.0 | 0.00 | 0.00 | 0.00 | 88 | 1013.3 |
| 20260901001217 | 76 | 15 | 2.0 | 2.0 | 0.00 | 0.00 | 0.00 | 88 | 1013.3 |
| 20260901000504 | 77 | 339 | 2.0 | 5.0 | 0.00 | 0.00 | 0.00 | 88 | 1013.3 |
| 20260901000004 | 77 | 353 | 4.0 | 5.0 | 0.00 | 0.00 | 0.00 | 89 | 1013.3 |
| 20260831235504 | 77 | 347 | 4.0 | 5.0 | 0.00 | 0.00 | 0.00 | 88 | 1013.3 |
| 20260831235004 | 77 | 310 | 4.0 | 5.0 | 0.00 | 0.00 | 0.00 | 87 | 1013.3 |
| 20260831234504 | 77 | 333 | 5.0 | 8.0 | 0.00 | 0.00 | 0.00 | 88 | 1013.3 |
| 20260831234215 | 77 | 5 | 5.0 | 11.0 | 0.00 | 0.00 | 0.00 | 88 | 1013.3 |
| 20260831233503 | 77 | 8 | 7.0 | 11.0 | 0.00 | 0.00 | 0.00 | 87 | 1014.3 |
| 20260831233004 | 78 | 348 | 5.0 | 8.0 | 0.00 | 0.00 | 0.00 | 87 | 1014.3 |
| 20260831232503 | 78 | 335 | 3.0 | 7.0 | 0.00 | 0.00 | 0.00 | 86 | 1014.3 |
| 20260831232003 | 78 | 338 | 3.0 | 7.0 | 0.00 | 0.00 | 0.00 | 86 | 1014.3 |
| 20260831231504 | 78 | 336 | 4.0 | 6.0 | 0.00 | 0.00 | 0.00 | 85 | 1014.3 |
| 20260831231003 | 78 | 321 | 5.0 | 8.0 | 0.00 | 0.00 | 0.00 | 85 | 1014.3 |
| 20260831230503 | 78 | 316 | 6.0 | 8.0 | 0.00 | 0.00 | 0.00 | 84 | 1014.3 |
| 20260831230004 | 78 | 326 | 5.0 | 7.0 | 0.00 | 0.00 | 0.00 | 84 | 1014.3 |
| 20260831225503 | 78 | 325 | 4.0 | 8.0 | 0.00 | 0.00 | 0.00 | 84 | 1014.3 |
| 20260831225214 | 78 | 329 | 5.0 | 8.0 | 0.00 | 0.00 | 0.00 | 82 | 1014.3 |
| 20260831224503 | 77 | 327 | 4.0 | 5.0 | 0.00 | 0.00 | 0.00 | 81 | 1013.3 |
| 20260831224003 | 77 | 350 | 4.0 | 7.0 | 0.00 | 0.00 | 0.00 | 81 | 1013.3 |
| 20260831223504 | 77 | 347 | 5.0 | 7.0 | 0.00 | 0.00 | 0.00 | 80 | 1014.3 |
| 20260831223003 | 77 | 321 | 6.0 | 8.0 | 0.00 | 0.00 | 0.00 | 78 | 1014.3 |
| 20260831222503 | 78 | 315 | 7.0 | 8.0 | 0.00 | 0.00 | 0.00 | 76 | 1014.3 |
| 20260831222005 | 78 | 315 | 6.0 | 8.0 | 0.00 | 0.00 | 0.00 | 76 | 1014.3 |
| 20260831221503 | 78 | 317 | 5.0 | 7.0 | 0.00 | 0.00 | 0.00 | 76 | 1014.3 |
| 20260831221213 | 78 | 317 | 5.0 | 7.0 | 0.00 | 0.00 | 0.00 | 76 | 1014.3 |
| 20260831220716 | 78 | 324 | 5.0 | 8.0 | 0.00 | 0.00 | 0.00 | 76 | 1014.3 |
| 20260831220003 | 77 | 319 | 4.0 | 7.0 | 0.00 | 0.00 | 0.00 | 75 | 1014.3 |
| 20260831215503 | 77 | 321 | 4.0 | 8.0 | 0.00 | 0.00 | 0.00 | 75 | 1014.3 |
| 20260831215004 | 78 | 337 | 5.0 | 8.0 | 0.00 | 0.00 | 0.00 | 73 | 1014.3 |
| 20260831214713 | 78 | 334 | 5.0 | 8.0 | 0.00 | 0.00 | 0.00 | 73 | 1014.3 |
| 20260831214003 | 78 | 313 | 2.0 | 6.0 | 0.00 | 0.00 | 0.00 | 72 | 1014.3 |
| 20260831213504 | 78 | 283 | 1.0 | 3.0 | 0.00 | 0.00 | 0.00 | 73 | 1014.3 |
| 20260831213004 | 78 | 270 | 1.0 | 3.0 | 0.00 | 0.00 | 0.00 | 73 | 1014.3 |
| 20260831212504 | 78 | 270 | 3.0 | 5.0 | 0.00 | 0.00 | 0.00 | 73 | 1014.3 |
| 20260831212004 | 78 | 270 | 4.0 | 6.0 | 0.00 | 0.00 | 0.00 | 73 | 1013.3 |
| 20260831211504 | 78 | 270 | 5.0 | 6.0 | 0.00 | 0.00 | 0.00 | 73 | 1013.3 |
| 20260831211004 | 78 | 270 | 4.0 | 6.0 | 0.00 | 0.00 | 0.00 | 72 | 1013.3 |
| 20260831210504 | 78 | 284 | 3.0 | 4.0 | 0.00 | 0.00 | 0.00 | 70 | 1013.3 |
| 20260831210005 | 79 | 308 | 4.0 | 6.0 | 0.00 | 0.00 | 0.00 | 70 | 1013.3 |
| 20260831205504 | 79 | 318 | 4.0 | 6.0 | 0.00 | 0.00 | 0.00 | 70 | 1013.3 |
| 20260831205004 | 79 | 331 | 3.0 | 5.0 | 0.00 | 0.00 | 0.00 | 70 | 1013.3 |
| 20260831204504 | 79 | 325 | 3.0 | 4.0 | 0.00 | 0.00 | 0.00 | 69 | 1013.3 |
| 20260831204004 | 79 | 317 | 3.0 | 5.0 | 0.00 | 0.00 | 0.00 | 69 | 1013.3 |
| 20260831203504 | 80 | 316 | 4.0 | 5.0 | 0.00 | 0.00 | 0.00 | 68 | 1013.3 |
| 20260831203005 | 80 | 316 | 3.0 | 5.0 | 0.00 | 0.00 | 0.00 | 68 | 1013.3 |
| 20260831202504 | 80 | 320 | 4.0 | 6.0 | 0.00 | 0.00 | 0.00 | 68 | 1013.3 |
| 20260831202004 | 80 | 315 | 5.0 | 6.0 | 0.00 | 0.00 | 0.00 | 68 | 1012.3 |
| 20260831201716 | 80 | 308 | 5.0 | 6.0 | 0.00 | 0.00 | 0.00 | 68 | 1012.3 |
| 20260831201004 | 80 | 309 | 4.0 | 5.0 | 0.00 | 0.00 | 0.00 | 68 | 1012.3 |
| 20260831200504 | 81 | 318 | 3.0 | 5.0 | 0.00 | 0.00 | 0.00 | 68 | 1012.3 |
| 20260831200004 | 81 | 306 | 3.0 | 4.0 | 0.00 | 0.00 | 0.00 | 68 | 1012.3 |
| 20260831195504 | 81 | 307 | 4.0 | 7.0 | 0.00 | 0.00 | 0.00 | 68 | 1012.3 |
| 20260831195005 | 81 | 314 | 5.0 | 8.0 | 0.00 | 0.00 | 0.00 | 68 | 1012.3 |
| 20260831194504 | 81 | 318 | 5.0 | 8.0 | 0.00 | 0.00 | 0.00 | 68 | 1012.3 |
| 20260831194004 | 81 | 315 | 4.0 | 8.0 | 0.00 | 0.00 | 0.00 | 68 | 1012.3 |
| 20260831193504 | 81 | 311 | 3.0 | 6.0 | 0.00 | 0.00 | 0.00 | 68 | 1012.3 |
| 20260831193004 | 81 | 327 | 2.0 | 4.0 | 0.00 | 0.00 | 0.00 | 68 | 1012.3 |
| 20260831192504 | 82 | 331 | 2.0 | 4.0 | 0.00 | 0.00 | 0.00 | 67 | 1012.3 |
| 20260831192004 | 82 | 328 | 3.0 | 4.0 | 0.00 | 0.00 | 0.00 | 66 | 1011.3 |
| 20260831191505 | 82 | 324 | 3.0 | 4.0 | 0.00 | 0.00 | 0.00 | 66 | 1011.3 |
| 20260831191004 | 83 | 314 | 2.0 | 4.0 | 0.00 | 0.00 | 0.00 | 65 | 1011.3 |
| 20260831190504 | 83 | 338 | 2.0 | 4.0 | 0.00 | 0.00 | 0.00 | 65 | 1011.3 |
| 20260831190003 | 83 | 19 | 2.0 | 4.0 | 0.00 | 0.00 | 0.00 | 66 | 1011.3 |
| 20260831185503 | 83 | 21 | 2.0 | 4.0 | 0.00 | 0.00 | 0.00 | 66 | 1011.3 |
| 20260831185003 | 84 | 18 | 3.0 | 7.0 | 0.00 | 0.00 | 0.00 | 66 | 1011.3 |
| 20260831184505 | 84 | 18 | 2.0 | 7.0 | 0.00 | 0.00 | 0.00 | 63 | 1011.3 |
| 20260831184003 | 84 | 17 | 2.0 | 5.0 | 0.00 | 0.00 | 0.00 | 60 | 1011.3 |
| 20260831183503 | 84 | 13 | 2.0 | 5.0 | 0.00 | 0.00 | 0.00 | 59 | 1011.3 |
| 20260831183004 | 85 | 13 | 2.0 | 5.0 | 0.00 | 0.00 | 0.00 | 54 | 1011.3 |
| 20260831182503 | 85 | 10 | 2.0 | 3.0 | 0.00 | 0.00 | 0.00 | 51 | 1011.3 |
| 20260831182003 | 86 | 6 | 1.0 | 3.0 | 0.00 | 0.00 | 0.00 | 46 | 1010.3 |
| 20260831181712 | 86 | 5 | 1.0 | 4.0 | 0.00 | 0.00 | 0.00 | 45 | 1010.3 |
| 20260831181003 | 87 | 2 | 2.0 | 4.0 | 0.00 | 0.00 | 0.00 | 42 | 1010.3 |
| 20260831180503 | 87 | 349 | 4.0 | 9.0 | 0.00 | 0.00 | 0.00 | 41 | 1010.3 |
| 20260831180005 | 88 | 329 | 6.0 | 9.0 | 0.00 | 0.00 | 0.00 | 42 | 1010.3 |
| 20260831175503 | 88 | 318 | 6.0 | 9.0 | 0.00 | 0.00 | 0.00 | 40 | 1010.3 |
| 20260831175003 | 89 | 316 | 5.0 | 9.0 | 0.00 | 0.00 | 0.00 | 39 | 1010.3 |
| 20260831174503 | 89 | 321 | 5.0 | 7.0 | 0.00 | 0.00 | 0.00 | 39 | 1010.3 |
| 20260831174003 | 89 | 325 | 7.0 | 9.0 | 0.00 | 0.00 | 0.00 | 37 | 1010.3 |
| 20260831173503 | 90 | 325 | 7.0 | 10.0 | 0.00 | 0.00 | 0.00 | 37 | 1010.3 |
| 20260831173003 | 90 | 327 | 7.0 | 10.0 | 0.00 | 0.00 | 0.00 | 37 | 1010.3 |
| 20260831172504 | 91 | 331 | 7.0 | 12.0 | 0.00 | 0.00 | 0.00 | 37 | 1010.3 |
| 20260831172215 | 91 | 334 | 7.0 | 12.0 | 0.00 | 0.00 | 0.00 | 36 | 1010.3 |
| 20260831171505 | 91 | 339 | 6.0 | 10.0 | 0.00 | 0.00 | 0.00 | 38 | 1010.3 |
| 20260831171005 | 92 | 321 | 7.0 | 13.0 | 0.00 | 0.00 | 0.00 | 38 | 1010.3 |
| 20260831170714 | 92 | 321 | 7.0 | 13.0 | 0.00 | 0.00 | 0.00 | 38 | 1010.3 |
| 20260831170004 | 92 | 323 | 8.0 | 11.0 | 0.00 | 0.00 | 0.00 | 39 | 1010.3 |
| 20260831165505 | 92 | 324 | 10.0 | 14.0 | 0.00 | 0.00 | 0.00 | 38 | 1010.3 |
| 20260831165004 | 93 | 323 | 11.0 | 14.0 | 0.00 | 0.00 | 0.00 | 37 | 1010.3 |
| 20260831164504 | 93 | 317 | 10.0 | 17.0 | 0.00 | 0.00 | 0.00 | 37 | 1010.3 |
| 20260831164219 | 93 | 320 | 9.0 | 17.0 | 0.00 | 0.00 | 0.00 | 37 | 1010.3 |
| 20260831163504 | 93 | 330 | 9.0 | 15.0 | 0.00 | 0.00 | 0.00 | 39 | 1010.3 |
| 20260831163004 | 94 | 333 | 9.0 | 15.0 | 0.00 | 0.00 | 0.00 | 38 | 1010.3 |
| 20260831162718 | 94 | 331 | 9.0 | 14.0 | 0.00 | 0.00 | 0.00 | 38 | 1010.3 |
| 20260831162004 | 94 | 321 | 11.0 | 15.0 | 0.00 | 0.00 | 0.00 | 36 | 1010.3 |
| 20260831161504 | 94 | 317 | 14.0 | 19.0 | 0.00 | 0.00 | 0.00 | 36 | 1010.3 |
| 20260831161004 | 94 | 320 | 15.0 | 19.0 | 0.00 | 0.00 | 0.00 | 34 | 1010.3 |
| 20260831160714 | 94 | 321 | 14.0 | 17.0 | 0.00 | 0.00 | 0.00 | 34 | 1010.3 |
| 20260831160004 | 94 | 305 | 11.0 | 17.0 | 0.00 | 0.00 | 0.00 | 34 | 1010.3 |
| 20260831155504 | 94 | 312 | 10.0 | 17.0 | 0.00 | 0.00 | 0.00 | 37 | 1010.3 |
| 20260831155004 | 94 | 335 | 9.0 | 15.0 | 0.00 | 0.00 | 0.00 | 37 | 1011.3 |
| 20260831154504 | 94 | 317 | 9.0 | 14.0 | 0.00 | 0.00 | 0.00 | 38 | 1011.3 |
| 20260831154004 | 94 | 330 | 10.0 | 14.0 | 0.00 | 0.00 | 0.00 | 38 | 1011.3 |
| 20260831153504 | 95 | 342 | 12.0 | 19.0 | 0.00 | 0.00 | 0.00 | 37 | 1011.3 |
| 20260831153003 | 95 | 323 | 15.0 | 22.0 | 0.00 | 0.00 | 0.00 | 36 | 1011.3 |
| 20260831152504 | 95 | 327 | 15.0 | 22.0 | 0.00 | 0.00 | 0.00 | 36 | 1011.3 |
| 20260831152216 | 95 | 332 | 14.0 | 22.0 | 0.00 | 0.00 | 0.00 | 35 | 1011.3 |
| 20260831151504 | 96 | 322 | 14.0 | 23.0 | 0.00 | 0.00 | 0.00 | 35 | 1011.3 |
| 20260831151004 | 96 | 317 | 16.0 | 23.0 | 0.00 | 0.00 | 0.00 | 37 | 1011.3 |
| 20260831150504 | 96 | 312 | 15.0 | 18.0 | 0.00 | 0.00 | 0.00 | 37 | 1011.3 |
| 20260831150004 | 96 | 312 | 13.0 | 18.0 | 0.00 | 0.00 | 0.00 | 38 | 1011.3 |
| 20260831145503 | 96 | 318 | 14.0 | 24.0 | 0.00 | 0.00 | 0.00 | 37 | 1011.3 |
| 20260831145004 | 96 | 312 | 17.0 | 24.0 | 0.00 | 0.00 | 0.00 | 38 | 1011.3 |
| 20260831144503 | 96 | 311 | 18.0 | 24.0 | 0.00 | 0.00 | 0.00 | 37 | 1011.3 |
| 20260831144003 | 96 | 307 | 16.0 | 24.0 | 0.00 | 0.00 | 0.00 | 40 | 1011.3 |
| 20260831143503 | 96 | 295 | 14.0 | 19.0 | 0.00 | 0.00 | 0.00 | 40 | 1011.3 |
| 20260831143004 | 96 | 307 | 16.0 | 19.0 | 0.00 | 0.00 | 0.00 | 42 | 1011.3 |
| 20260831142503 | 96 | 307 | 16.0 | 20.0 | 0.00 | 0.00 | 0.00 | 45 | 1011.3 |
| 20260831142003 | 95 | 295 | 15.0 | 20.0 | 0.00 | 0.00 | 0.00 | 46 | 1011.3 |
| 20260831141503 | 95 | 284 | 16.0 | 19.0 | 0.00 | 0.00 | 0.00 | 48 | 1011.3 |
| 20260831141213 | 95 | 281 | 16.0 | 18.0 | 0.00 | 0.00 | 0.00 | 51 | 1011.3 |
| 20260831140503 | 95 | 287 | 16.0 | 26.0 | 0.00 | 0.00 | 0.00 | 50 | 1011.3 |
| 20260831140003 | 94 | 293 | 16.0 | 26.0 | 0.00 | 0.00 | 0.00 | 51 | 1011.3 |
| 20260831135504 | 94 | 299 | 17.0 | 26.0 | 0.00 | 0.00 | 0.00 | 51 | 1011.3 |
| 20260831135003 | 94 | 298 | 21.0 | 26.0 | 0.00 | 0.00 | 0.00 | 52 | 1011.3 |
| 20260831134713 | 94 | 293 | 19.0 | 25.0 | 0.00 | 0.00 | 0.00 | 52 | 1011.3 |
| 20260831134216 | 94 | 290 | 19.0 | 24.0 | 0.00 | 0.00 | 0.00 | 53 | 1011.3 |
| 20260831133714 | 94 | 296 | 18.0 | 24.0 | 0.00 | 0.00 | 0.00 | 52 | 1011.3 |
| 20260831133217 | 95 | 292 | 17.0 | 23.0 | 0.00 | 0.00 | 0.00 | 52 | 1011.3 |
| 20260831132503 | 95 | 286 | 17.0 | 23.0 | 0.00 | 0.00 | 0.00 | 52 | 1011.3 |
| 20260831132004 | 95 | 286 | 18.0 | 23.0 | 0.00 | 0.00 | 0.00 | 52 | 1011.3 |
| 20260831131504 | 95 | 294 | 20.0 | 23.0 | 0.00 | 0.00 | 0.00 | 50 | 1011.3 |
| 20260831131004 | 95 | 286 | 17.0 | 23.0 | 0.00 | 0.00 | 0.00 | 48 | 1011.3 |
| 20260831130504 | 95 | 287 | 14.0 | 24.0 | 0.00 | 0.00 | 0.00 | 50 | 1011.3 |
| 20260831130004 | 95 | 298 | 15.0 | 24.0 | 0.00 | 0.00 | 0.00 | 50 | 1011.3 |
| 20260831125504 | 95 | 291 | 17.0 | 24.0 | 0.00 | 0.00 | 0.00 | 50 | 1011.3 |
| 20260831125004 | 95 | 280 | 18.0 | 24.0 | 0.00 | 0.00 | 0.00 | 50 | 1011.3 |
| 20260831124504 | 95 | 287 | 16.0 | 22.0 | 0.00 | 0.00 | 0.00 | 50 | 1011.3 |
| 20260831124004 | 95 | 285 | 16.0 | 22.0 | 0.00 | 0.00 | 0.00 | 49 | 1011.3 |
| 20260831123505 | 95 | 287 | 16.0 | 23.0 | 0.00 | 0.00 | 0.00 | 50 | 1011.3 |
| 20260831123217 | 95 | 290 | 16.0 | 23.0 | 0.00 | 0.00 | 0.00 | 50 | 1011.3 |
| 20260831122715 | 95 | 292 | 15.0 | 23.0 | 0.00 | 0.00 | 0.00 | 52 | 1011.3 |
| 20260831122004 | 94 | 284 | 17.0 | 27.0 | 0.00 | 0.00 | 0.00 | 53 | 1011.3 |
| 20260831121504 | 94 | 285 | 19.0 | 27.0 | 0.00 | 0.00 | 0.00 | 53 | 1011.3 |
| 20260831121005 | 94 | 276 | 19.0 | 24.0 | 0.00 | 0.00 | 0.00 | 53 | 1011.3 |
| 20260831120504 | 94 | 271 | 18.0 | 23.0 | 0.00 | 0.00 | 0.00 | 52 | 1011.3 |
| 20260831120004 | 95 | 275 | 16.0 | 20.0 | 0.00 | 0.00 | 0.00 | 53 | 1011.3 |
| 20260831115504 | 95 | 281 | 14.0 | 18.0 | 0.00 | 0.00 | 0.00 | 55 | 1011.3 |
| 20260831115004 | 95 | 287 | 13.0 | 17.0 | 0.00 | 0.00 | 0.00 | 55 | 1012.3 |
| 20260831114504 | 94 | 285 | 15.0 | 24.0 | 0.00 | 0.00 | 0.00 | 56 | 1012.3 |
| 20260831114004 | 94 | 279 | 16.0 | 24.0 | 0.00 | 0.00 | 0.00 | 57 | 1012.3 |
| 20260831113504 | 94 | 282 | 16.0 | 21.0 | 0.00 | 0.00 | 0.00 | 57 | 1012.3 |
| 20260831113004 | 93 | 287 | 16.0 | 19.0 | 0.00 | 0.00 | 0.00 | 58 | 1012.3 |
| 20260831112504 | 93 | 281 | 16.0 | 18.0 | 0.00 | 0.00 | 0.00 | 59 | 1012.3 |
| 20260831112004 | 93 | 273 | 15.0 | 18.0 | 0.00 | 0.00 | 0.00 | 59 | 1012.3 |
| 20260831111717 | 93 | 273 | 15.0 | 19.0 | 0.00 | 0.00 | 0.00 | 59 | 1012.3 |
| 20260831111003 | 93 | 270 | 16.0 | 19.0 | 0.00 | 0.00 | 0.00 | 59 | 1012.3 |
| 20260831110504 | 93 | 272 | 15.0 | 19.0 | 0.00 | 0.00 | 0.00 | 60 | 1012.3 |
| 20260831110004 | 93 | 277 | 15.0 | 21.0 | 0.00 | 0.00 | 0.00 | 60 | 1012.3 |
| 20260831105504 | 92 | 277 | 15.0 | 21.0 | 0.00 | 0.00 | 0.00 | 61 | 1012.3 |
| 20260831105005 | 93 | 275 | 14.0 | 23.0 | 0.00 | 0.00 | 0.00 | 60 | 1012.3 |
| 20260831104504 | 93 | 274 | 14.0 | 23.0 | 0.00 | 0.00 | 0.00 | 60 | 1012.3 |
| 20260831104004 | 93 | 280 | 14.0 | 20.0 | 0.00 | 0.00 | 0.00 | 60 | 1012.3 |
| 20260831103716 | 93 | 280 | 13.0 | 15.0 | 0.00 | 0.00 | 0.00 | 61 | 1012.3 |
| 20260831103004 | 92 | 273 | 13.0 | 17.0 | 0.00 | 0.00 | 0.00 | 60 | 1012.3 |
| 20260831102716 | 92 | 280 | 13.0 | 17.0 | 0.00 | 0.00 | 0.00 | 60 | 1012.3 |
| 20260831102004 | 93 | 283 | 12.0 | 18.0 | 0.00 | 0.00 | 0.00 | 60 | 1012.3 |
| 20260831101503 | 92 | 276 | 14.0 | 20.0 | 0.00 | 0.00 | 0.00 | 61 | 1012.3 |
| 20260831101004 | 92 | 289 | 13.0 | 20.0 | 0.00 | 0.00 | 0.00 | 60 | 1012.3 |
| 20260831100503 | 92 | 291 | 13.0 | 18.0 | 0.00 | 0.00 | 0.00 | 60 | 1012.3 |
| 20260831100003 | 92 | 286 | 12.0 | 18.0 | 0.00 | 0.00 | 0.00 | 60 | 1012.3 |
| 20260831095503 | 92 | 279 | 12.0 | 18.0 | 0.00 | 0.00 | 0.00 | 59 | 1012.3 |
| 20260831095003 | 91 | 281 | 12.0 | 18.0 | 0.00 | 0.00 | 0.00 | 61 | 1012.3 |
| 20260831094503 | 92 | 283 | 12.0 | 15.0 | 0.00 | 0.00 | 0.00 | 62 | 1012.3 |
| 20260831094003 | 92 | 279 | 11.0 | 16.0 | 0.00 | 0.00 | 0.00 | 67 | 1012.3 |
| 20260831093503 | 91 | 274 | 10.0 | 16.0 | 0.00 | 0.00 | 0.00 | 70 | 1012.3 |
| 20260831093005 | 91 | 296 | 10.0 | 14.0 | 0.00 | 0.00 | 0.00 | 72 | 1012.3 |
| 20260831092717 | 91 | 300 | 11.0 | 14.0 | 0.00 | 0.00 | 0.00 | 73 | 1012.3 |
| 20260831092003 | 91 | 283 | 10.0 | 17.0 | 0.00 | 0.00 | 0.00 | 75 | 1012.3 |
| 20260831091504 | 91 | 282 | 12.0 | 17.0 | 0.00 | 0.00 | 0.00 | 77 | 1012.3 |
| 20260831091003 | 90 | 287 | 11.0 | 15.0 | 0.00 | 0.00 | 0.00 | 77 | 1012.3 |
| 20260831090505 | 90 | 285 | 10.0 | 15.0 | 0.00 | 0.00 | 0.00 | 77 | 1012.3 |
| 20260831090003 | 91 | 286 | 9.0 | 14.0 | 0.00 | 0.00 | 0.00 | 79 | 1012.3 |
| 20260831085504 | 91 | 283 | 9.0 | 14.0 | 0.00 | 0.00 | 0.00 | 79 | 1012.3 |
| 20260831085004 | 91 | 301 | 9.0 | 13.0 | 0.00 | 0.00 | 0.00 | 80 | 1012.3 |
| 20260831084504 | 91 | 315 | 7.0 | 12.0 | 0.00 | 0.00 | 0.00 | 80 | 1012.3 |
| 20260831084004 | 90 | 307 | 8.0 | 10.0 | 0.00 | 0.00 | 0.00 | 81 | 1012.3 |
| 20260831083505 | 90 | 311 | 9.0 | 12.0 | 0.00 | 0.00 | 0.00 | 82 | 1012.3 |
| 20260831083004 | 90 | 305 | 9.0 | 12.0 | 0.00 | 0.00 | 0.00 | 83 | 1012.3 |
| 20260831082718 | 89 | 303 | 8.0 | 12.0 | 0.00 | 0.00 | 0.00 | 84 | 1012.3 |
| 20260831082005 | 89 | 315 | 7.0 | 11.0 | 0.00 | 0.00 | 0.00 | 84 | 1012.3 |
| 20260831081504 | 89 | 316 | 7.0 | 11.0 | 0.00 | 0.00 | 0.00 | 86 | 1012.3 |
| 20260831081004 | 88 | 317 | 7.0 | 11.0 | 0.00 | 0.00 | 0.00 | 86 | 1012.3 |
| 20260831080505 | 88 | 313 | 8.0 | 11.0 | 0.00 | 0.00 | 0.00 | 87 | 1012.3 |
| 20260831080218 | 87 | 314 | 10.0 | 14.0 | 0.00 | 0.00 | 0.00 | 88 | 1012.3 |
| 20260831075505 | 87 | 312 | 9.0 | 14.0 | 0.00 | 0.00 | 0.00 | 88 | 1012.3 |
| 20260831075004 | 87 | 309 | 8.0 | 14.0 | 0.00 | 0.00 | 0.00 | 89 | 1012.3 |
| 20260831074504 | 87 | 320 | 9.0 | 14.0 | 0.00 | 0.00 | 0.00 | 90 | 1012.3 |
| 20260831074215 | 86 | 323 | 9.0 | 15.0 | 0.00 | 0.00 | 0.00 | 90 | 1012.3 |
| 20260831073504 | 85 | 323 | 11.0 | 15.0 | 0.00 | 0.00 | 0.00 | 92 | 1012.3 |
| 20260831073004 | 85 | 313 | 11.0 | 15.0 | 0.00 | 0.00 | 0.00 | 92 | 1012.3 |
| 20260831072504 | 85 | 317 | 10.0 | 13.0 | 0.00 | 0.00 | 0.00 | 93 | 1012.3 |
| 20260831072004 | 85 | 323 | 10.0 | 13.0 | 0.00 | 0.00 | 0.00 | 95 | 1012.3 |
| 20260831071504 | 84 | 327 | 11.0 | 14.0 | 0.00 | 0.00 | 0.00 | 95 | 1012.3 |
| 20260831071004 | 84 | 328 | 11.0 | 14.0 | 0.00 | 0.00 | 0.00 | 95 | 1012.3 |
| 20260831070504 | 84 | 308 | 12.0 | 18.0 | 0.00 | 0.00 | 0.00 | 95 | 1012.3 |
| 20260831070004 | 83 | 312 | 12.0 | 18.0 | 0.00 | 0.00 | 0.00 | 95 | 1012.3 |
| 20260831065504 | 83 | 316 | 11.0 | 14.0 | 0.00 | 0.00 | 0.00 | 95 | 1012.3 |
| 20260831065004 | 83 | 301 | 11.0 | 14.0 | 0.00 | 0.00 | 0.00 | 95 | 1012.3 |
| 20260831064504 | 83 | 311 | 12.0 | 15.0 | 0.00 | 0.00 | 0.00 | 95 | 1012.3 |
| 20260831064003 | 82 | 317 | 12.0 | 15.0 | 0.00 | 0.00 | 0.00 | 95 | 1012.3 |
| 20260831063504 | 82 | 309 | 13.0 | 15.0 | 0.00 | 0.00 | 0.00 | 95 | 1012.3 |
| 20260831063003 | 82 | 305 | 11.0 | 15.0 | 0.00 | 0.00 | 0.00 | 95 | 1012.3 |
| 20260831062504 | 82 | 315 | 10.0 | 15.0 | 0.00 | 0.00 | 0.00 | 95 | 1012.3 |
| 20260831062217 | 82 | 318 | 9.0 | 15.0 | 0.00 | 0.00 | 0.00 | 95 | 1012.3 |
| 20260831061504 | 81 | 316 | 8.0 | 12.0 | 0.00 | 0.00 | 0.00 | 95 | 1012.3 |
| 20260831061004 | 81 | 318 | 9.0 | 12.0 | 0.00 | 0.00 | 0.00 | 95 | 1012.3 |
| 20260831060503 | 80 | 323 | 7.0 | 10.0 | 0.00 | 0.00 | 0.00 | 95 | 1012.3 |
| 20260831060004 | 80 | 328 | 7.0 | 8.0 | 0.00 | 0.00 | 0.00 | 95 | 1012.3 |
| 20260831055717 | 80 | 319 | 6.0 | 8.0 | 0.00 | 0.00 | 0.00 | 95 | 1012.3 |
| 20260831055003 | 79 | 310 | 5.0 | 7.0 | 0.00 | 0.00 | 0.00 | 95 | 1012.3 |
| 20260831054504 | 79 | 324 | 4.0 | 5.0 | 0.00 | 0.00 | 0.00 | 95 | 1012.3 |
| 20260831054005 | 79 | 324 | 3.0 | 5.0 | 0.00 | 0.00 | 0.00 | 95 | 1012.3 |
| 20260831053503 | 79 | 319 | 3.0 | 5.0 | 0.00 | 0.00 | 0.00 | 95 | 1012.3 |
| 20260831053003 | 79 | 315 | 3.0 | 5.0 | 0.00 | 0.00 | 0.00 | 95 | 1012.3 |
| 20260831052715 | 79 | 315 | 3.0 | 4.0 | 0.00 | 0.00 | 0.00 | 95 | 1012.3 |
| 20260831052004 | 79 | 304 | 4.0 | 6.0 | 0.00 | 0.00 | 0.00 | 95 | 1011.3 |
| 20260831051504 | 78 | 304 | 5.0 | 7.0 | 0.00 | 0.00 | 0.00 | 95 | 1011.3 |
| 20260831051003 | 78 | 305 | 5.0 | 7.0 | 0.00 | 0.00 | 0.00 | 95 | 1011.3 |
| 20260831050503 | 78 | 309 | 5.0 | 6.0 | 0.00 | 0.00 | 0.00 | 95 | 1011.3 |
| 20260831050003 | 78 | 298 | 5.0 | 5.0 | 0.00 | 0.00 | 0.00 | 95 | 1011.3 |
| 20260831045504 | 78 | 298 | 4.0 | 5.0 | 0.00 | 0.00 | 0.00 | 95 | 1011.3 |
| 20260831045003 | 78 | 289 | 4.0 | 6.0 | 0.00 | 0.00 | 0.00 | 95 | 1011.3 |
| 20260831044503 | 78 | 275 | 5.0 | 6.0 | 0.00 | 0.00 | 0.00 | 95 | 1011.3 |
| 20260831044003 | 78 | 289 | 5.0 | 5.0 | 0.00 | 0.00 | 0.00 | 95 | 1011.3 |
| 20260831043714 | 78 | 302 | 5.0 | 5.0 | 0.00 | 0.00 | 0.00 | 95 | 1011.3 |
| 20260831043004 | 78 | 313 | 5.0 | 6.0 | 0.00 | 0.00 | 0.00 | 95 | 1011.3 |
| 20260831042504 | 78 | 310 | 5.0 | 5.0 | 0.00 | 0.00 | 0.00 | 95 | 1011.3 |
| 20260831042004 | 78 | 312 | 5.0 | 7.0 | 0.00 | 0.00 | 0.00 | 95 | 1011.3 |
| 20260831041716 | 77 | 312 | 5.0 | 7.0 | 0.00 | 0.00 | 0.00 | 95 | 1011.3 |
| 20260831041004 | 77 | 307 | 6.0 | 8.0 | 0.00 | 0.00 | 0.00 | 95 | 1011.3 |
| 20260831040504 | 77 | 300 | 7.0 | 8.0 | 0.00 | 0.00 | 0.00 | 95 | 1011.3 |
| 20260831040005 | 77 | 305 | 7.0 | 8.0 | 0.00 | 0.00 | 0.00 | 95 | 1011.3 |
| 20260831035505 | 77 | 307 | 6.0 | 8.0 | 0.00 | 0.00 | 0.00 | 95 | 1011.3 |
| 20260831035004 | 77 | 302 | 6.0 | 8.0 | 0.00 | 0.00 | 0.00 | 96 | 1010.3 |
| 20260831034714 | 77 | 303 | 5.0 | 7.0 | 0.00 | 0.00 | 0.00 | 96 | 1010.3 |
| 20260831034004 | 77 | 297 | 5.0 | 5.0 | 0.00 | 0.00 | 0.00 | 96 | 1010.3 |
| 20260831033504 | 77 | 288 | 4.0 | 5.0 | 0.00 | 0.00 | 0.00 | 96 | 1010.3 |
| 20260831033004 | 77 | 302 | 3.0 | 5.0 | 0.00 | 0.00 | 0.00 | 96 | 1010.3 |
| 20260831032716 | 77 | 301 | 3.0 | 4.0 | 0.00 | 0.00 | 0.00 | 96 | 1010.3 |
| 20260831032004 | 77 | 308 | 3.0 | 5.0 | 0.00 | 0.00 | 0.00 | 96 | 1010.3 |
| 20260831031504 | 77 | 307 | 4.0 | 5.0 | 0.00 | 0.00 | 0.00 | 96 | 1010.3 |
| 20260831031004 | 77 | 315 | 3.0 | 4.0 | 0.00 | 0.00 | 0.00 | 96 | 1010.3 |
| 20260831030504 | 77 | 315 | 3.0 | 4.0 | 0.00 | 0.00 | 0.00 | 96 | 1010.3 |
| 20260831030004 | 77 | 315 | 3.0 | 5.0 | 0.00 | 0.00 | 0.00 | 95 | 1010.3 |
| 20260831025714 | 77 | 315 | 3.0 | 5.0 | 0.00 | 0.00 | 0.00 | 95 | 1010.3 |
| 20260831025004 | 77 | 309 | 5.0 | 6.0 | 0.00 | 0.00 | 0.00 | 95 | 1010.3 |
| 20260831024504 | 77 | 300 | 5.0 | 6.0 | 0.00 | 0.00 | 0.00 | 95 | 1010.3 |
| 20260831024004 | 77 | 308 | 5.0 | 6.0 | 0.00 | 0.00 | 0.00 | 95 | 1010.3 |
| 20260831023504 | 77 | 312 | 4.0 | 5.0 | 0.00 | 0.00 | 0.00 | 95 | 1010.3 |
| 20260831023004 | 78 | 293 | 5.0 | 7.0 | 0.00 | 0.00 | 0.00 | 95 | 1010.3 |
| 20260831022504 | 78 | 285 | 4.0 | 7.0 | 0.00 | 0.00 | 0.00 | 95 | 1010.3 |
| 20260831022003 | 78 | 297 | 4.0 | 5.0 | 0.00 | 0.00 | 0.00 | 95 | 1010.3 |
| 20260831021504 | 78 | 294 | 5.0 | 5.0 | 0.00 | 0.00 | 0.00 | 95 | 1010.3 |
| 20260831021004 | 78 | 284 | 4.0 | 5.0 | 0.00 | 0.00 | 0.00 | 95 | 1010.3 |
| 20260831020504 | 78 | 299 | 4.0 | 5.0 | 0.00 | 0.00 | 0.00 | 95 | 1010.3 |
| 20260831020004 | 78 | 310 | 4.0 | 5.0 | 0.00 | 0.00 | 0.00 | 95 | 1010.3 |
| 20260831015504 | 78 | 305 | 4.0 | 6.0 | 0.00 | 0.00 | 0.00 | 95 | 1010.3 |
| 20260831015004 | 78 | 287 | 5.0 | 6.0 | 0.00 | 0.00 | 0.00 | 95 | 1010.3 |
| 20260831014504 | 78 | 270 | 5.0 | 5.0 | 0.00 | 0.00 | 0.00 | 95 | 1010.3 |
| 20260831014004 | 78 | 270 | 5.0 | 5.0 | 0.00 | 0.00 | 0.00 | 95 | 1010.3 |
| 20260831013504 | 78 | 270 | 5.0 | 5.0 | 0.00 | 0.00 | 0.00 | 95 | 1011.3 |
| 20260831013003 | 78 | 270 | 4.0 | 5.0 | 0.00 | 0.00 | 0.00 | 95 | 1011.3 |
| 20260831012503 | 78 | 270 | 4.0 | 5.0 | 0.00 | 0.00 | 0.00 | 95 | 1011.3 |
| 20260831012215 | 78 | 270 | 4.0 | 5.0 | 0.00 | 0.00 | 0.00 | 95 | 1011.3 |
| 20260831011504 | 78 | 270 | 2.0 | 4.0 | 0.00 | 0.00 | 0.00 | 95 | 1011.3 |
| 20260831011004 | 78 | 270 | 2.0 | 3.0 | 0.00 | 0.00 | 0.00 | 95 | 1011.3 |
| 20260831010504 | 78 | 270 | 1.0 | 2.0 | 0.00 | 0.00 | 0.00 | 95 | 1011.3 |
| 20260831010217 | 78 | 270 | 1.0 | 4.0 | 0.00 | 0.00 | 0.00 | 95 | 1011.3 |
| 20260831005503 | 78 | 310 | 2.0 | 4.0 | 0.00 | 0.00 | 0.00 | 94 | 1011.3 |
| 20260831005003 | 79 | 360 | 2.0 | 4.0 | 0.00 | 0.00 | 0.00 | 94 | 1011.3 |
| 20260831004503 | 79 | 4 | 2.0 | 4.0 | 0.00 | 0.00 | 0.00 | 94 | 1011.3 |
| 20260831004005 | 79 | 14 | 3.0 | 4.0 | 0.00 | 0.00 | 0.00 | 94 | 1011.3 |